Weather History for Pella, IA

Change the Weather History Date:

Sunday, February 10, 2013

  Actual Average (KOXV) Record (KOXV)
Temperature  
Mean Temperature 44 °F -  
Max Temperature 54 °F 34 °F 68 °F (1999)
Min Temperature 33 °F 17 °F -13 °F (2014)
Degree Days  
Heating Degree Days 22    
Moisture  
Dew Point 35 °F    
Average Humidity 85    
Maximum Humidity 99    
Minimum Humidity 51    
Precipitation  
Precipitation 0.03 in - - ()
Sea Level Pressure  
Sea Level Pressure 29.54 in    
Wind  
Wind Speed 14 mph (South)    
Max Wind Speed 30 mph    
Max Gust Speed 41 mph    
Visibility 6 miles    
Events Rain    
Averages and records for this station are not official NWS values.
T = Trace of Precipitation, MM = Missing Value Source: NWS Daily Summary

Daily Weather History Graph

Daily Weather History Graph

Search for Another Location

Airport:

Trip Planner

Search our weather history database for the weather conditions in past years. The results will help you decide how hot, cold, wet, or windy it might be!

Date:

Astronomy

Feb. 10, 2013 Rise Set
Actual Time 7:12 AM CST 5:39 PM CST
Civil Twilight 6:44 AM CST 6:08 PM CST
Nautical Twilight 6:11 AM CST 6:41 PM CST
Astronomical Twilight 5:39 AM CST 7:13 PM CST
Moon 7:02 AM CST (2/10) 6:32 PM CST (2/10)
Length of Visible Light 11h 24m
Length of Day
10h 26m
New Moon, 0% of the Moon is Illuminated
Feb 10
New Moon
Feb 17
First Quarter
Feb 25
Full
Mar 4
Last Quarter
Mar 11
New

Hourly Weather History & Observations

Time (CST) Temp. Windchill Dew Point Humidity Pressure Visibility Wind Dir Wind Speed Gust Speed Precip Events Conditions
12:15 AM 33.8 °F 25.8 °F 32.0 °F 93% 29.88 in 3.0 mi ESE 10.4 mph - 0.01 in   Overcast
12:35 AM 33.6 °F 25.0 °F 32.0 °F 94% 29.87 in 3.0 mi ESE 11.5 mph - 0.01 in   Overcast
12:55 AM 33.4 °F 25.4 °F 32.0 °F 94% 29.86 in 4.0 mi ESE 10.4 mph - 0.02 in Rain Rain
1:15 AM 33.6 °F 24.6 °F 32.2 °F 94% 29.85 in 5.0 mi ESE 12.7 mph - N/A   Mostly Cloudy
1:35 AM 33.8 °F 24.8 °F 32.4 °F 94% 29.84 in 5.0 mi ESE 12.7 mph - N/A   Overcast
1:55 AM 34.0 °F 25.5 °F 32.7 °F 95% 29.84 in 5.0 mi ESE 11.5 mph 16.1 mph N/A   Overcast
2:15 AM 34.0 °F 26.0 °F 32.9 °F 96% 29.84 in 5.0 mi ESE 10.4 mph - N/A   Overcast
2:35 AM 34.2 °F 26.2 °F 32.9 °F 95% 29.84 in 5.0 mi ESE 10.4 mph - N/A   Overcast
2:55 AM 34.2 °F 26.8 °F 32.9 °F 95% 29.81 in 3.0 mi ESE 9.2 mph - N/A   Drizzle
3:15 AM 34.2 °F 26.2 °F 33.1 °F 96% 29.80 in 4.0 mi ESE 10.4 mph - N/A   Light Drizzle
3:35 AM 34.0 °F 26.0 °F 32.9 °F 96% 29.78 in 2.5 mi ESE 10.4 mph - N/A Rain Light Rain
3:55 AM 34.2 °F 25.7 °F 33.1 °F 96% 29.75 in 2.0 mi ESE 11.5 mph - N/A Rain Light Rain
4:15 AM 34.2 °F 25.2 °F 33.3 °F 97% 29.73 in 1.8 mi ESE 12.7 mph 17.3 mph N/A Rain Light Rain
4:35 AM 34.3 °F 25.5 °F 33.8 °F 98% 29.72 in 2.5 mi ESE 12.7 mph - N/A   Overcast
4:55 AM 34.3 °F 24.6 °F 33.8 °F 98% 29.68 in 2.5 mi ESE 15.0 mph - N/A   Overcast
5:15 AM 34.5 °F 24.5 °F 33.8 °F 97% 29.63 in 2.0 mi ESE 16.1 mph 21.9 mph N/A   Overcast
5:35 AM 34.7 °F 25.5 °F 34.0 °F 97% 29.64 in 2.0 mi ESE 13.8 mph 19.6 mph N/A   Overcast
5:55 AM 35.1 °F 25.5 °F 34.3 °F 97% 29.64 in 2.0 mi SE 15.0 mph - N/A   Overcast
6:15 AM 35.6 °F 25.5 °F 34.9 °F 97% 29.63 in 1.5 mi SE 17.3 mph 23.0 mph N/A   Overcast
6:35 AM 35.6 °F 26.6 °F 35.1 °F 98% 29.63 in 1.2 mi SE 13.8 mph 18.4 mph N/A Rain Light Rain
6:55 AM 36.0 °F 27.1 °F 35.6 °F 99% 29.61 in 1.8 mi SE 13.8 mph - N/A Rain Light Rain
7:15 AM 36.5 °F 26.3 °F 36.0 °F 98% 29.61 in 2.0 mi SE 18.4 mph 23.0 mph N/A Rain Light Rain
7:35 AM 36.5 °F 27.4 °F 36.0 °F 98% 29.58 in 2.5 mi SE 15.0 mph - N/A Rain Light Rain
7:55 AM 36.5 °F 27.8 °F 36.0 °F 98% 29.56 in 2.5 mi ESE 13.8 mph 21.9 mph N/A Rain Light Rain
8:15 AM 36.9 °F 27.8 °F 36.5 °F 99% 29.54 in 1.8 mi ESE 15.0 mph 21.9 mph 0.01 in Rain Light Rain
8:35 AM 37.4 °F 27.8 °F 36.9 °F 98% 29.52 in 2.5 mi ESE 17.3 mph 24.2 mph 0.01 in   Overcast
8:55 AM 38.3 °F 29.3 °F 37.6 °F 97% 29.50 in 3.0 mi SE 16.1 mph - 0.01 in   Overcast
9:15 AM 38.8 °F 30.4 °F 38.1 °F 97% 29.49 in 5.0 mi SE 15.0 mph 19.6 mph N/A   Overcast
9:35 AM 39.6 °F 34.0 °F 38.8 °F 97% 29.49 in 5.0 mi SE 8.1 mph - N/A   Overcast
9:55 AM 40.3 °F 32.6 °F 39.4 °F 97% 29.48 in 2.0 mi SE 13.8 mph 19.6 mph N/A   Overcast
10:15 AM 40.3 °F 34.4 °F 39.4 °F 97% 29.47 in 2.5 mi SSE 9.2 mph - N/A Rain Light Rain
10:35 AM 40.3 °F 33.0 °F 39.4 °F 97% 29.46 in 2.5 mi SSE 12.7 mph 21.9 mph N/A Rain Rain
10:55 AM 41.0 °F 33.1 °F 40.1 °F 97% 29.43 in 4.0 mi SE 15.0 mph - N/A   Overcast
11:15 AM 41.7 °F 35.6 °F 40.8 °F 97% 29.44 in 5.0 mi SSE 10.4 mph - N/A   Overcast
11:35 AM 42.8 °F 37.0 °F 41.9 °F 97% 29.41 in 5.0 mi SE 10.4 mph - N/A   Overcast
11:55 AM 43.9 °F 38.3 °F 43.0 °F 97% 29.39 in 7.0 mi SE 10.4 mph - N/A   Overcast
12:15 PM 44.8 °F 39.4 °F 43.9 °F 97% 29.37 in 5.0 mi SSE 10.4 mph - N/A   Overcast
12:35 PM 47.1 °F - 46.2 °F 97% 29.36 in 7.0 mi SSE 9.2 mph 17.3 mph N/A   Overcast
12:55 PM 49.3 °F - 47.7 °F 94% 29.34 in 10.0 mi SE 10.4 mph - N/A   Mostly Cloudy
1:15 PM 50.9 °F - 47.1 °F 87% 29.33 in 10.0 mi SSE 10.4 mph 16.1 mph N/A   Scattered Clouds
1:35 PM 52.2 °F - 45.9 °F 79% 29.32 in 10.0 mi South 11.5 mph 18.4 mph N/A   Scattered Clouds
1:55 PM 53.2 °F - 42.6 °F 67% 29.31 in 10.0 mi South 15.0 mph 24.2 mph N/A   Scattered Clouds
2:15 PM 54.3 °F - 38.7 °F 55% 29.30 in 10.0 mi SSW 23.0 mph 29.9 mph N/A   Mostly Cloudy
2:35 PM 54.1 °F - 36.5 °F 51% 29.30 in 10.0 mi SSW 19.6 mph 29.9 mph N/A   Mostly Cloudy
3:15 PM 51.8 °F - 35.4 °F 54% 29.32 in 10.0 mi SW 18.4 mph 35.7 mph N/A   Mostly Cloudy
3:35 PM 50.5 °F - 33.8 °F 53% 29.34 in 10.0 mi SW 19.6 mph 31.1 mph N/A   Mostly Cloudy
3:55 PM 48.4 °F - 32.9 °F 55% 29.34 in 10.0 mi SW 15.0 mph 23.0 mph N/A   Overcast
4:15 PM 47.7 °F - 33.3 °F 57% 29.35 in 10.0 mi SW 17.3 mph 24.2 mph N/A   Overcast
4:35 PM 46.6 °F - 32.0 °F 57% 29.37 in 10.0 mi SW 25.3 mph 38.0 mph N/A   Overcast
4:55 PM 45.5 °F 38.3 °F 31.8 °F 59% 29.38 in 10.0 mi SW 17.3 mph 32.2 mph N/A   Overcast
5:15 PM 44.6 °F 35.5 °F 31.8 °F 61% 29.38 in 10.0 mi SW 25.3 mph 34.5 mph N/A   Overcast
5:35 PM 42.3 °F 31.9 °F 32.0 °F 67% 29.41 in 10.0 mi SW 27.6 mph 41.4 mph N/A   Light Drizzle
5:55 PM 41.4 °F 31.2 °F 32.0 °F 69% 29.41 in 10.0 mi SW 25.3 mph 34.5 mph N/A   Mostly Cloudy
6:15 PM 40.8 °F 31.1 °F 31.8 °F 70% 29.43 in 10.0 mi SW 21.9 mph 34.5 mph N/A   Mostly Cloudy
6:35 PM 39.4 °F 28.7 °F 32.0 °F 75% 29.43 in 10.0 mi SW 24.2 mph 36.8 mph N/A   Scattered Clouds
6:55 PM 38.7 °F 28.8 °F 32.0 °F 77% 29.45 in 10.0 mi SW 19.6 mph 34.5 mph N/A   Mostly Cloudy
7:15 PM 37.8 °F 27.4 °F 32.2 °F 80% 29.46 in 7.0 mi SW 20.7 mph 39.1 mph N/A   Light Drizzle
7:35 PM 36.9 °F 26.8 °F 33.3 °F 87% 29.46 in 7.0 mi SW 18.4 mph 34.5 mph N/A   Light Drizzle
7:55 PM 36.5 °F 25.4 °F 33.8 °F 90% 29.47 in 7.0 mi SW 21.9 mph 31.1 mph N/A   Light Drizzle
8:15 PM 36.5 °F 25.4 °F 33.8 °F 90% 29.48 in 7.0 mi SW 21.9 mph 32.2 mph N/A   Light Drizzle
8:35 PM 36.5 °F 24.7 °F 30.9 °F 80% 29.49 in 10.0 mi WSW 25.3 mph 34.5 mph N/A   Mostly Cloudy
8:55 PM 35.8 °F 25.1 °F 31.3 °F 84% 29.50 in 10.0 mi WSW 19.6 mph 31.1 mph N/A   Overcast
9:15 PM 35.6 °F 24.8 °F 29.1 °F 77% 29.52 in 10.0 mi WSW 19.6 mph 32.2 mph N/A   Overcast
9:35 PM 35.1 °F 24.8 °F 27.5 °F 74% 29.53 in 10.0 mi WSW 17.3 mph 32.2 mph N/A   Mostly Cloudy
9:55 PM 34.9 °F 23.6 °F 26.8 °F 72% 29.54 in 10.0 mi West 20.7 mph 28.8 mph N/A   Mostly Cloudy
10:15 PM 34.7 °F 22.8 °F 26.8 °F 73% 29.56 in 10.0 mi WSW 23.0 mph 31.1 mph N/A   Mostly Cloudy
10:35 PM 34.7 °F 22.0 °F 26.6 °F 72% 29.57 in 10.0 mi West 26.5 mph 34.5 mph N/A   Mostly Cloudy
10:55 PM 34.2 °F 21.8 °F 25.7 °F 71% 29.58 in 10.0 mi West 24.2 mph 32.2 mph N/A   Overcast
11:15 PM 34.2 °F 21.8 °F 26.1 °F 72% 29.59 in 10.0 mi WSW 24.2 mph 33.4 mph N/A   Mostly Cloudy
11:35 PM 33.8 °F 20.1 °F 25.2 °F 71% 29.60 in 10.0 mi WSW 29.9 mph 36.8 mph N/A   Overcast
11:55 PM 33.8 °F 20.3 °F 23.9 °F 67% 29.61 in 10.0 mi West 28.8 mph 39.1 mph N/A   Overcast